Location: Aldenham
(51.6667°N, 0.3500°W)
Time: 02:46:39
(UTC+00:00)

Altair - Pass Details

Date: 17 February 2026
Orbit: 1502 x 1682 km, 47.2° (Epoch: 13 March)

Event Time Altitude Azimuth Distance (km) Brightness Sun altitude
Rises 05:24:56 0° 231° (SW) 4,633 - -17.2°
Exits shadow 05:27:52 - 227° (SW) 3,711 9.1 -16.7°
Reaches altitude 10° 05:28:02 10° 226° (SW) 3,662 9.0 -16.7°
Maximum altitude 05:36:48 51° 155° (SSE) 1,869 8.1 -15.3°
Drops below altitude 10° 05:45:51 10° 83° (E) 3,778 11.0 -13.9°
Sets 05:49:05 0° 79° (E) 4,790 11.8 -13.4°
